Tracking 29932 objects as of 3-Dec-2024
HD Live streaming from Space Station
objects crossing your sky now

STARLINK-31388

Track STARLINK-31388 now!
10-day predictions
STARLINK-31388 is classified as:


NORAD ID: 59565
Int'l Code: 2024-076B
Perigee: 450.2 km
Apogee: 452.2 km
Inclination: 43.0 °
Period: 93.5 minutes
Semi major axis: 6822 km
RCS: Unknown
Launch date: April 23, 2024
Source: United States (US)
Launch site: AIR FORCE EASTERN TEST RANGE (AFETR)
Your satellite tracking list
Your tracking list is empty




NASA's NSSDC Master Catalog

Two Line Element Set (TLE):
1 59565U 24076B   24337.64450442  .00003026  00000-0  79683-4 0  9995
2 59565  43.0018 110.9717 0001517 268.3292  91.7391 15.40698108 35695
Source of the keplerian elements: AFSPC